Marshfield, WI

7:23 PM CDT on April 28, 2017 (GMT -0500)
Marshfield Municipal

Weather History for KMFI - December, 2013

Change the Weather History Date:

Friday, December 13, 2013

  Actual Average Record
Temperature  
Mean Temperature 13 °F -  
Max Temperature 16 °F 29 °F 51 °F (2015)
Min Temperature 10 °F 11 °F -18 °F (1961)
Degree Days  
Heating Degree Days 52    
Moisture  
Dew Point 5 °F    
Average Humidity 71    
Maximum Humidity 77    
Minimum Humidity 64    
Precipitation  
Precipitation 0.00 in - - ()
Sea Level Pressure  
Sea Level Pressure 30.22 in    
Wind  
Wind Speed 9 mph (NE)    
Max Wind Speed 15 mph    
Max Gust Speed -    
Visibility 9 miles    
Events Snow    
Averages and records for this station are not official NWS values.
T = Trace of Precipitation, MM = Missing Value Source: NWS Daily Summary

Daily Weather History Graph

Daily Weather History Graph

Search for Another Location

Airport or City:

Trip Planner

Search our weather history database for the weather conditions in past years. The results will help you decide how hot, cold, wet, or windy it might be!

Date:

Astronomy

Dec. 13, 2013 Rise Set
Actual Time 7:29 AM CST 4:20 PM CST
Civil Twilight 6:56 AM CST 4:54 PM CST
Nautical Twilight 6:19 AM CST 5:31 PM CST
Astronomical Twilight 5:43 AM CST 6:06 PM CST
Moon 2:09 PM CST (12/13) 3:45 AM CST (12/13)
Length of Visible Light 9h 58m
Length of Day
8h 51m
Waxing Gibbous, 88% of the Moon is Illuminated
Dec 13
Waxing Gibbous
Dec 17
Full
Dec 25
Last Quarter
Jan 1
New
Jan 7
First Quarter

Hourly Weather History & Observations

Time (CST) Temp. Windchill Dew Point Humidity Pressure Visibility Wind Dir Wind Speed Gust Speed Precip Events Conditions
12:54 AM 16.0 °F 7.4 °F 8.1 °F 71% 30.18 in 9.0 mi NNW 5.8 mph - N/A   Overcast
1:54 AM 16.0 °F 8.8 °F 8.1 °F 71% 30.18 in 9.0 mi NNW 4.6 mph - N/A   Overcast
2:54 AM 15.1 °F 5.2 °F 7.0 °F 70% 30.19 in 10.0 mi North 6.9 mph - N/A   Overcast
3:37 AM 14.0 °F 2.9 °F 6.1 °F 71% 30.10 in 10.0 mi NNE 8.1 mph - N/A   Overcast
3:50 AM 14.0 °F 2.9 °F 6.8 °F 73% 30.11 in 10.0 mi North 8.1 mph - N/A   Overcast
3:54 AM 14.0 °F 3.9 °F 6.1 °F 71% 30.19 in 10.0 mi NNE 6.9 mph - N/A   Overcast
4:05 AM 14.0 °F 3.9 °F 6.1 °F 71% 30.10 in 10.0 mi NNE 6.9 mph - N/A   Overcast
4:54 AM 12.9 °F 2.6 °F 6.1 °F 74% 30.19 in 10.0 mi NE 6.9 mph - N/A   Overcast
5:38 AM 12.9 °F 1.6 °F 6.1 °F 74% 30.11 in 10.0 mi ENE 8.1 mph - N/A   Overcast
5:54 AM 12.9 °F -0.9 °F 6.1 °F 74% 30.19 in 10.0 mi NE 11.5 mph - N/A   Overcast
6:54 AM 12.0 °F -1.3 °F 5.0 °F 73% 30.22 in 10.0 mi ENE 10.4 mph - N/A   Unknown
7:54 AM 12.0 °F 0.5 °F 5.0 °F 73% 30.22 in 10.0 mi ENE 8.1 mph - N/A   Overcast
8:54 AM 12.9 °F 2.6 °F 5.0 °F 71% 30.25 in 10.0 mi NE 6.9 mph - N/A   Overcast
9:54 AM 12.9 °F 1.6 °F 5.0 °F 71% 30.27 in 10.0 mi East 8.1 mph - N/A   Overcast
10:54 AM 12.9 °F 0.7 °F 5.0 °F 71% 30.26 in 10.0 mi ENE 9.2 mph - N/A   Overcast
11:54 AM 14.0 °F 2.0 °F 6.1 °F 71% 30.23 in 10.0 mi ENE 9.2 mph - N/A   Overcast
12:54 PM 15.1 °F 3.3 °F 6.1 °F 68% 30.24 in 10.0 mi ENE 9.2 mph - N/A   Overcast
1:35 PM 15.1 °F 1.1 °F 6.1 °F 68% 30.15 in 10.0 mi ENE 12.7 mph - N/A   Overcast
1:54 PM 15.1 °F 1.8 °F 6.1 °F 68% 30.23 in 10.0 mi ENE 11.5 mph - N/A   Overcast
2:54 PM 15.1 °F 2.5 °F 6.1 °F 68% 30.24 in 10.0 mi ENE 10.4 mph - N/A   Overcast
3:54 PM 15.1 °F 3.3 °F 6.1 °F 68% 30.25 in 10.0 mi East 9.2 mph - N/A   Overcast
4:54 PM 14.0 °F -0.8 °F 6.1 °F 71% 30.27 in 10.0 mi ENE 13.8 mph - N/A   Overcast
5:54 PM 12.9 °F -1.6 °F 3.9 °F 67% 30.28 in 10.0 mi ENE 12.7 mph - N/A   Overcast
6:17 PM 12.0 °F -2.0 °F 3.9 °F 70% 30.20 in 10.0 mi ENE 11.5 mph - N/A   Overcast
6:54 PM 12.0 °F -2.7 °F 3.0 °F 67% 30.30 in 10.0 mi ENE 12.7 mph - N/A   Overcast
7:54 PM 10.9 °F -5.4 °F 1.9 °F 67% 30.31 in 10.0 mi East 15.0 mph - N/A   Overcast
8:54 PM 10.9 °F -3.4 °F 1.0 °F 64% 30.32 in 10.0 mi East 11.5 mph - N/A   Overcast
9:54 PM 10.9 °F -2.6 °F 1.0 °F 64% 30.32 in 10.0 mi ENE 10.4 mph - N/A   Overcast
10:54 PM 10.9 °F -4.1 °F 3.0 °F 70% 30.31 in 3.0 mi East 12.7 mph - 0.00 in Snow Light Snow
11:15 PM 10.9 °F -5.4 °F 5.0 °F 77% 30.22 in 1.5 mi ENE 15.0 mph - 0.00 in Snow Light Snow
11:36 PM 10.9 °F -4.7 °F 5.0 °F 77% 30.22 in 1.5 mi ENE 13.8 mph - 0.00 in Snow Light Snow
11:46 PM 10.9 °F -4.1 °F 5.0 °F 77% 30.22 in 2.0 mi ENE 12.7 mph - 0.00 in Snow Light Snow
11:54 PM 10.9 °F -3.4 °F 5.0 °F 77% 30.31 in 2.5 mi ENE 11.5 mph - 0.00 in Snow Light Snow